Tracking 28790 objects as of 19-Apr-2024
HD Live streaming from Space Station
objects crossing your sky now

SAUDISAT 5A

Track SAUDISAT 5A now!
10-day predictions


NORAD ID: 43831
Int'l Code: 2018-102A
Perigee: 518.9 km
Apogee: 536.9 km
Inclination: 97.4 °
Period: 95.0 minutes
Semi major axis: 6898 km
RCS: Unknown
Launch date: December 7, 2018
Source: Saudi Arabia (SAUD)
Launch site: Jiuquan Satellite Launch Center, China (JSC)
Your satellite tracking list
Your tracking list is empty




NASA's NSSDC Master Catalog

Two Line Element Set (TLE):
1 43831U 18102A   24110.15301779  .00009145  00000-0  49088-3 0  9993
2 43831  97.4123 177.2225 0013027  30.6970 329.5022 15.15083418295657
Source of the keplerian elements: AFSPC